Temperature
25 24 24 23 22 21 21 20 20 20 19 19 19 19 19 19 19 19 19 19 19 19 19 19 18 18 18 18 18 18 18 18 18 18 18 19 19 19 19 19 18 18 18
26 25 24 23 22 21 21 20 20 20 20 20 19 19 19 19 19 19 19 19 19 19 19 19 19 18 18 18 18 18 18 18 18 18 18 18 19 19 19 19 18 18 18
26 25 24 23 22 21 21 21 21 20 20 20 20 19 19 19 19 19 19 19 19 19 19 19 19 19 18 18 18 18 18 18 18 18 18 18 18 18 19 19 18 18 18
27 25 24 23 22 22 21 21 21 21 20 20 20 19 19 19 20 19 19 19 19 19 19 19 19 19 19 18 18 18 18 18 18 18 18 18 18 18 18 18 18 18 18
27 26 25 24 23 22 21 21 21 21 21 20 20 20 19 19 19 19 19 19 19 19 19 19 19 19 19 18 18 18 18 18 18 18 18 18 18 18 18 17 17 17 17
28 27 25 24 23 23 22 21 21 21 21 21 20 20 20 20 19 19 19 19 19 19 19 19 19 19 19 18 18 18 18 18 18 18 18 18 18 18 18 17 17 17 17
28 27 26 25 24 23 22 22 21 21 21 21 20 20 20 20 19 19 19 19 19 19 19 19 19 19 18 18 18 18 18 18 18 18 18 17 17 17 17 17 17 17 16
29 28 26 25 24 23 23 22 22 21 21 21 20 20 20 20 19 19 19 19 19 19 19 19 19 19 18 18 18 18 18 17 17 17 17 17 17 17 17 17 17 16 16
29 28 27 26 24 24 23 22 22 21 21 20 20 20 20 20 19 19 19 19 19 19 19 19 19 18 18 18 18 18 17 17 17 17 17 17 17 17 17 17 16 16 15
29 28 27 26 25 24 23 22 22 21 21 20 20 20 20 20 20 19 19 19 19 19 18 18 18 18 18 18 18 18 17 17 17 17 17 17 17 16 16 16 16 16 16
29 28 27 26 25 24 23 22 22 21 21 20 20 20 19 19 19 19 19 19 19 18 18 18 18 18 18 18 17 17 17 17 17 17 16 16 16 16 16 16 16 15 15
28 27 26 25 24 23 23 22 21 21 20 20 20 19 19 19 19 19 19 19 18 18 18 18 17 17 17 17 17 17 17 17 16 16 16 16 16 16 16 15 15 15 15
27 27 25 24 24 23 22 22 21 20 20 20 19 19 19 19 19 19 19 18 18 18 18 17 17 17 17 17 17 17 16 16 16 16 16 16 16 16 15 15 15 15 14
26 26 25 24 23 22 22 21 21 20 20 20 19 19 19 19 18 18 18 18 18 18 17 17 17 17 17 16 16 16 16 16 16 15 15 15 15 15 15 15 15 15 14
26 25 24 23 23 22 21 21 21 20 20 19 19 19 19 18 18 18 17 17 17 17 17 17 17 16 16 16 16 15 15 15 15 15 15 15 15 15 15 15 14 14 14
25 24 23 23 22 22 21 21 20 20 20 19 19 19 18 18 17 17 17 17 17 17 17 17 16 16 16 16 15 15 15 15 15 15 14 14 14 14 14 14 14 14 14
25 24 23 22 22 22 21 21 20 20 19 19 19 18 18 18 17 17 17 17 16 16 16 16 16 16 15 15 15 15 15 15 14 14 14 14 14 14 14 14 14 13 13
25 24 23 22 22 21 21 20 20 19 19 19 18 18 18 17 17 17 17 16 16 16 16 16 15 15 15 15 15 14 14 14 14 14 14 14 14 13 13 13 13 13 13
24 23 23 22 21 21 20 20 19 19 19 18 18 18 17 17 17 16 16 16 16 15 15 15 15 15 14 14 14 14 14 14 14 13 13 13 13 13 13 13 13 12 12
24 23 22 22 21 20 20 19 19 19 18 18 18 17 17 17 16 16 16 15 15 15 14 14 14 14 14 14 14 13 13 13 13 13 13 13 13 13 13 12 12 12 12
23 22 22 21 21 20 19 19 19 18 18 18 17 17 17 16 16 16 16 15 15 14 14 14 14 14 13 13 13 13 13 13 13 13 13 13 12 12 12 12 12 12 12
22 22 21 20 20 20 19 19 18 18 18 18 17 17 16 16 16 15 15 15 14 14 14 14 13 13 13 13 13 13 13 12 12 12 12 12 12 12 12 12 12 12 11
22 21 20 20 19 19 19 19 18 18 18 17 17 16 16 15 15 15 15 14 14 14 14 13 13 13 13 13 12 12 12 12 12 12 12 12 12 12 11 11 11 11 11
21 20 20 19 19 19 18 18 18 18 17 17 16 16 15 15 15 15 15 14 14 14 13 13 13 13 13 13 12 12 12 12 12 12 12 12 12 12 11 11 11 11 11
20 20 19 19 19 19 18 18 18 17 17 16 16 16 15 15 15 15 14 14 14 14 14 13 13 13 13 13 12 12 12 12 12 12 12 11 11 11 11 11 11 11 10
19 19 19 18 18 18 18 17 17 17 17 16 16 15 15 15 15 14 14 14 14 14 13 13 13 13 13 13 12 12 12 12 12 12 11 11 11 11 11 11 10 10 10
Wind_Speed
14 13 13 13 12 11 10 8 7 7 5 4 4 4 3 3 3 4 6 6 6 5 4 2 2 2 1 1 2 2 3 3 2 2 2 3 3 3 3 2 2 2 4
15 14 13 13 12 11 10 9 8 8 7 5 4 3 3 4 4 3 5 7 7 6 6 4 3 3 2 2 3 3 3 3 1 1 2 2 2 2 2 3 2 2 1
16 15 14 13 13 13 12 10 8 8 7 6 4 4 3 3 2 3 4 5 7 6 5 4 3 3 3 3 3 3 4 3 2 1 1 1 1 1 1 0 1 2 2
16 16 15 14 13 13 12 9 9 8 7 6 5 5 4 4 4 3 3 4 4 4 4 4 4 3 3 2 3 3 3 3 3 2 2 3 1 1 1 1 0 1 2
16 16 16 15 14 14 12 11 9 8 7 6 5 5 4 4 3 3 3 3 3 4 4 4 4 3 3 2 3 2 3 2 3 3 2 3 3 2 2 2 1 0 1
15 15 15 14 13 13 12 12 10 8 8 7 6 5 4 3 2 2 2 3 3 3 3 4 3 3 3 3 3 3 3 3 3 3 3 2 1 1 2 2 1 1 0
12 12 13 14 13 13 12 11 11 9 8 7 6 5 4 3 3 2 3 3 2 3 3 4 3 3 3 3 2 2 2 2 3 3 3 3 2 1 1 1 1 1 0
12 12 14 14 14 14 12 11 11 9 8 8 6 5 4 4 3 3 2 2 2 2 3 3 3 3 3 3 2 2 2 1 1 2 2 2 2 1 1 1 1 1 0
10 11 12 14 13 13 12 11 11 10 9 7 6 4 4 3 2 1 1 1 1 1 1 2 2 2 2 1 2 1 0 0 0 1 1 1 1 1 1 0 1 2 2
9 10 10 11 11 10 9 9 10 9 7 7 6 5 4 3 2 1 1 0 1 1 1 1 1 1 1 1 1 1 1 1 1 0 1 1 1 1 1 0 0 1 2
8 8 9 10 11 10 10 8 8 8 8 6 5 4 4 4 3 2 2 2 1 1 0 1 1 1 1 1 2 2 1 1 1 0 1 1 1 1 1 1 1 1 2
7 8 8 9 9 10 9 8 8 7 7 6 5 4 3 3 3 2 1 2 2 1 1 1 1 1 1 1 2 2 1 1 1 1 1 1 1 1 1 1 1 2 2
7 8 9 7 8 9 8 8 7 7 7 7 6 4 3 3 3 2 2 2 2 2 2 2 1 1 1 1 2 1 1 1 1 1 2 2 2 1 1 2 1 1 2
8 9 9 8 8 8 8 8 7 7 7 6 6 5 4 3 3 2 3 3 3 3 2 2 2 2 2 2 2 2 1 2 2 2 3 3 2 1 0 1 1 2 3
8 10 10 9 9 8 7 7 7 7 6 6 6 5 5 4 3 3 3 3 4 4 3 3 3 3 3 3 3 2 3 3 3 3 3 4 5 6 4 3 2 3 3
9 10 10 10 9 8 8 7 7 7 7 7 6 5 5 5 4 4 5 4 5 4 4 4 5 5 4 7 7 4 3 3 3 3 3 3 4 5 7 7 7 5 4
8 9 10 10 9 8 8 8 8 7 7 7 6 5 5 5 4 5 5 5 5 5 5 5 6 6 7 9 8 6 4 4 4 3 3 3 5 5 4 7 8 8 8
8 9 9 9 9 9 9 9 8 8 7 6 5 5 6 6 5 5 5 5 5 5 5 5 5 6 7 9 8 6 5 6 6 5 5 5 5 6 5 6 6 6 6
8 8 8 10 10 9 9 9 8 8 7 7 6 6 6 6 6 5 5 5 5 6 5 5 5 5 6 9 8 6 5 6 6 6 7 6 6 8 7 5 5 5 4
8 8 8 10 10 9 9 9 9 8 7 7 6 6 6 6 6 5 5 5 5 6 6 6 5 5 5 7 9 6 3 5 5 5 7 9 8 8 7 5 4 4 3
8 8 8 8 8 9 9 8 8 8 8 8 7 7 6 6 6 5 4 4 5 6 6 6 5 6 5 7 10 9 3 3 4 4 4 5 8 8 7 5 4 4 2
9 9 8 8 8 8 8 8 8 8 9 9 8 7 7 6 6 5 4 4 5 6 6 6 5 4 5 6 7 9 8 5 4 4 4 4 6 7 6 5 4 4 3
8 7 8 8 8 8 8 9 8 9 9 9 8 8 7 6 5 5 4 4 4 5 5 5 5 5 4 5 7 8 9 9 6 5 6 6 4 3 3 3 3 2 1
7 7 7 8 8 8 8 8 9 10 10 9 8 7 7 7 5 4 4 3 2 3 4 4 5 5 5 4 3 3 5 6 6 5 4 4 2 0 1 1 1 1 1
6 6 6 7 8 8 8 9 10 10 10 9 8 8 7 6 6 5 4 3 4 2 3 3 4 4 4 2 2 3 2 2 3 2 2 2 2 2 2 2 1 1 1
5 6 6 7 8 9 9 9 9 9 9 8 7 7 7 6 6 7 6 10 7 9 10 8 6 5 6 6 6 5 4 4 3 1 1 2 1 1 2 2 2 1 1
Wind_Direction
163 161 162 158 156 153 154 164 167 160 166 176 182 197 193 205 206 193 179 184 196 198 210 225 178 235 250 261 273 258 259 251 254 275 286 270 225 204 198 202 197 181 188
165 163 165 162 161 159 161 167 174 170 181 187 192 202 202 219 208 191 168 194 199 201 211 202 220 215 221 233 266 270 272 273 252 246 265 279 285 286 223 182 174 179 142
169 167 169 168 168 169 170 178 179 175 188 184 194 213 195 237 215 183 187 204 205 210 228 187 215 232 232 219 237 254 262 272 281 251 249 252 251 275 300 132 161 145 122
170 170 172 174 174 173 174 173 172 175 182 185 201 209 206 220 219 192 190 197 200 212 212 204 209 225 246 218 237 225 247 258 265 255 234 231 227 232 290 313 340 128 117
172 173 176 176 177 176 175 172 168 174 179 189 202 212 222 222 214 188 183 188 199 209 216 205 200 213 238 239 252 255 249 252 257 261 253 242 229 225 227 249 259 29 77
173 172 174 171 176 177 176 174 171 176 178 188 199 207 224 230 242 197 179 198 206 207 213 209 200 206 230 238 247 251 254 252 259 265 272 266 238 227 227 232 224 217 196
169 169 170 170 175 176 176 174 170 177 179 186 199 201 217 225 242 231 215 218 211 208 209 216 207 213 222 227 232 242 261 261 263 265 273 286 288 282 255 213 236 239 184
168 170 173 172 179 179 175 173 168 173 178 186 194 200 203 218 229 226 233 221 234 219 192 195 200 201 215 226 202 232 238 240 250 266 275 289 299 302 278 223 209 219 208
161 167 172 170 178 177 174 174 165 166 174 182 185 190 194 206 218 203 220 254 266 252 132 162 180 186 191 208 166 167 218 184 214 270 309 277 293 338 335 278 207 199 202
157 155 157 158 166 166 160 162 158 161 166 173 182 183 180 188 198 173 177 281 26 11 64 87 136 145 170 160 164 154 169 146 119 102 20 344 347 359 360 57 92 126 160
144 142 142 146 147 145 147 146 149 153 159 168 169 172 167 165 168 172 153 141 118 94 71 93 127 152 162 167 159 160 159 153 116 51 58 29 26 14 7 44 84 109 129
126 125 126 133 137 139 144 147 150 153 154 151 148 151 142 146 154 149 129 119 120 106 86 70 85 109 122 145 152 174 158 137 135 101 52 34 59 49 36 38 89 116 124
124 119 118 124 128 134 136 138 139 142 143 143 141 135 129 123 129 138 132 121 112 98 75 65 61 50 49 95 114 129 128 119 95 78 70 61 60 57 66 74 79 110 120
131 124 120 122 122 125 129 134 137 139 140 138 139 132 126 121 128 126 117 109 103 93 80 67 60 60 43 54 73 79 89 91 77 68 69 65 69 55 65 101 92 104 114
133 129 129 129 128 131 133 133 133 132 134 133 132 133 130 120 112 109 109 107 99 93 75 64 55 49 53 50 49 75 83 77 73 71 76 80 81 74 69 71 64 91 101
148 139 136 135 140 144 143 138 135 136 135 136 137 135 134 126 117 113 109 101 93 83 73 68 62 57 50 37 45 61 81 84 83 79 78 83 73 78 80 79 74 75 92
147 145 144 144 145 146 141 140 139 137 136 135 135 135 135 131 126 122 109 100 94 90 82 75 71 63 44 35 40 51 70 76 72 72 63 59 61 69 80 85 78 66 67
153 150 149 146 147 146 143 142 143 142 141 139 135 130 127 123 118 114 108 105 103 97 88 79 74 69 48 36 40 53 78 71 62 57 60 62 53 52 64 81 78 70 60
147 148 149 147 145 146 145 144 144 144 143 141 136 130 124 125 123 119 116 112 110 103 98 91 81 74 52 38 38 47 93 84 71 61 56 61 63 48 64 89 98 94 78
142 145 146 141 142 144 145 147 148 145 143 138 133 128 125 127 123 119 116 115 114 113 108 94 84 77 62 44 40 35 89 96 91 80 66 58 58 51 59 83 88 88 86
139 140 137 137 142 144 148 151 149 147 140 132 126 124 123 122 121 119 118 126 127 119 112 107 95 82 70 59 49 45 56 85 99 95 81 61 55 51 45 63 77 82 80
142 141 139 140 142 147 152 151 149 141 134 132 129 127 127 129 126 125 127 138 137 131 125 117 108 97 83 65 61 56 55 60 86 90 91 86 73 60 47 58 62 60 65
142 144 145 145 150 153 156 153 142 138 138 135 133 132 130 120 123 128 129 132 143 139 137 138 131 121 111 92 77 68 66 66 79 85 103 111 99 72 69 78 60 55 47
144 145 150 156 153 153 153 146 142 143 142 141 140 137 133 131 127 126 127 124 127 141 145 142 134 127 123 114 109 112 102 97 98 103 116 133 138 82 28 71 86 91 56
145 147 149 152 151 149 146 145 145 147 146 146 146 144 140 132 117 99 69 86 67 84 120 119 125 131 128 115 115 123 115 116 107 125 168 172 157 142 136 129 114 95 86
145 147 151 153 148 146 144 144 148 151 152 153 156 155 151 147 144 132 101 59 75 79 83 87 100 101 111 123 103 95 91 92 95 132 170 151 151 139 132 135 126 95 59
Height
1539 1542 1545 1548 1550 1552 1554 1556 1558 1559 1561 1562 1564 1565 1566 1567 1568 1569 1569 1570 1571 1571 1571 1572 1572 1572 1573 1573 1573 1573 1573 1573 1573 1574 1573 1573 1573 1573 1573 1573 1573 1573 1573
1537 1540 1544 1546 1548 1550 1552 1554 1556 1558 1560 1561 1563 1564 1566 1566 1567 1568 1568 1569 1569 1570 1570 1570 1570 1571 1571 1571 1571 1571 1571 1572 1572 1572 1572 1572 1572 1571 1571 1571 1571 1571 1571
1533 1538 1541 1544 1546 1548 1550 1553 1555 1556 1558 1560 1561 1563 1564 1565 1566 1566 1566 1567 1567 1568 1568 1568 1568 1569 1569 1569 1569 1569 1569 1570 1570 1570 1571 1570 1570 1569 1570 1569 1569 1569 1569
1530 1534 1538 1541 1544 1546 1548 1551 1553 1555 1556 1558 1559 1561 1562 1563 1564 1564 1564 1565 1565 1566 1566 1566 1566 1566 1566 1567 1567 1567 1567 1567 1567 1568 1568 1568 1568 1568 1568 1568 1567 1567 1567
1526 1531 1534 1538 1542 1545 1547 1548 1550 1552 1554 1556 1557 1559 1560 1561 1562 1562 1563 1563 1563 1564 1564 1564 1564 1564 1564 1564 1565 1565 1564 1565 1565 1565 1565 1565 1566 1566 1566 1565 1566 1565 1565
1522 1527 1531 1536 1539 1543 1545 1547 1548 1550 1552 1554 1555 1556 1558 1559 1560 1560 1561 1561 1561 1561 1562 1562 1561 1561 1562 1562 1562 1562 1562 1561 1562 1562 1562 1563 1563 1563 1563 1563 1563 1563 1563
1519 1524 1529 1533 1536 1540 1542 1544 1546 1548 1549 1551 1553 1554 1555 1557 1557 1558 1558 1558 1559 1559 1559 1559 1559 1559 1559 1559 1559 1559 1559 1559 1559 1559 1559 1559 1560 1560 1561 1561 1561 1561 1562
1516 1521 1525 1530 1533 1537 1539 1542 1544 1545 1547 1549 1551 1552 1553 1554 1555 1555 1556 1556 1557 1557 1556 1557 1557 1557 1557 1557 1557 1557 1556 1556 1556 1557 1557 1557 1557 1557 1558 1558 1559 1559 1560
1514 1518 1522 1526 1531 1535 1537 1540 1542 1544 1546 1547 1549 1550 1551 1552 1552 1553 1554 1554 1555 1555 1555 1555 1555 1555 1555 1555 1555 1554 1554 1554 1554 1554 1554 1554 1554 1555 1555 1556 1556 1557 1556
1513 1517 1521 1524 1528 1532 1536 1539 1541 1542 1544 1546 1547 1548 1549 1550 1550 1551 1552 1551 1552 1553 1553 1553 1553 1553 1553 1553 1553 1552 1553 1553 1552 1552 1552 1552 1552 1553 1553 1553 1553 1554 1555
1513 1517 1520 1524 1527 1531 1535 1537 1540 1541 1543 1544 1546 1547 1548 1548 1549 1549 1549 1550 1550 1551 1551 1551 1551 1551 1551 1551 1551 1551 1551 1551 1550 1550 1551 1551 1551 1551 1551 1552 1552 1552 1553
1513 1517 1521 1524 1527 1530 1534 1536 1538 1540 1542 1543 1545 1546 1546 1547 1547 1547 1547 1548 1548 1548 1549 1549 1549 1549 1549 1549 1549 1549 1549 1549 1549 1549 1549 1549 1549 1549 1549 1550 1550 1551 1551
1514 1516 1520 1524 1527 1530 1533 1536 1538 1540 1541 1542 1543 1544 1545 1545 1545 1545 1546 1546 1546 1547 1547 1547 1547 1547 1547 1547 1547 1547 1547 1547 1547 1547 1547 1547 1547 1547 1548 1548 1549 1550 1550
1514 1517 1520 1524 1527 1530 1533 1535 1537 1539 1541 1542 1542 1543 1543 1544 1543 1544 1544 1545 1545 1545 1546 1546 1546 1546 1546 1546 1545 1546 1545 1545 1546 1546 1545 1546 1546 1546 1547 1547 1548 1549 1549
1516 1518 1521 1524 1527 1530 1532 1535 1537 1539 1540 1541 1541 1542 1543 1543 1543 1543 1543 1544 1544 1545 1545 1545 1545 1545 1544 1544 1544 1544 1544 1543 1544 1544 1544 1545 1545 1545 1546 1546 1547 1547 1548
1516 1519 1521 1523 1526 1529 1531 1534 1536 1537 1539 1539 1540 1541 1542 1543 1543 1543 1543 1543 1543 1544 1544 1544 1544 1544 1543 1543 1543 1544 1543 1543 1543 1544 1544 1544 1544 1545 1545 1545 1545 1546 1546
1515 1518 1520 1523 1525 1528 1530 1532 1534 1536 1537 1538 1539 1541 1542 1542 1543 1543 1543 1543 1543 1544 1544 1544 1544 1543 1544 1544 1543 1543 1543 1543 1543 1543 1543 1544 1544 1544 1544 1544 1545 1545 1545
1514 1517 1520 1522 1525 1527 1529 1531 1534 1535 1536 1537 1539 1540 1541 1541 1542 1543 1543 1543 1543 1543 1544 1544 1544 1544 1544 1544 1543 1543 1543 1543 1543 1543 1543 1543 1543 1543 1544 1544 1545 1546 1546
1513 1516 1519 1522 1524 1526 1528 1530 1532 1534 1535 1536 1538 1539 1540 1541 1541 1542 1542 1543 1543 1543 1544 1544 1544 1544 1544 1544 1544 1544 1543 1543 1543 1543 1543 1544 1544 1544 1544 1544 1545 1546 1547
1513 1516 1518 1521 1523 1525 1527 1529 1530 1532 1534 1535 1537 1538 1539 1540 1541 1542 1542 1542 1543 1544 1544 1544 1544 1544 1544 1545 1545 1545 1545 1544 1544 1544 1544 1545 1545 1545 1545 1545 1545 1546 1547
1512 1515 1517 1519 1521 1524 1526 1527 1529 1531 1533 1534 1536 1537 1538 1539 1540 1541 1542 1542 1543 1544 1544 1545 1545 1545 1545 1545 1545 1546 1546 1546 1546 1545 1546 1546 1547 1547 1547 1547 1547 1548 1549
1512 1514 1516 1518 1520 1522 1524 1526 1528 1530 1532 1533 1535 1536 1538 1539 1540 1541 1541 1542 1543 1544 1544 1545 1545 1546 1546 1546 1547 1547 1547 1547 1547 1547 1548 1548 1549 1549 1549 1549 1549 1550 1550
1511 1513 1515 1517 1519 1521 1523 1525 1527 1529 1530 1532 1534 1536 1537 1538 1540 1541 1541 1541 1543 1544 1545 1545 1546 1546 1547 1547 1548 1548 1549 1549 1549 1549 1549 1550 1550 1551 1551 1551 1551 1551 1551
1510 1512 1514 1516 1518 1520 1522 1524 1525 1527 1529 1531 1533 1535 1536 1538 1539 1540 1541 1542 1543 1544 1545 1546 1546 1546 1547 1548 1548 1549 1549 1550 1550 1551 1551 1551 1552 1552 1552 1552 1552 1552 1552
1509 1511 1513 1514 1516 1518 1520 1522 1524 1526 1528 1530 1532 1534 1536 1537 1538 1540 1541 1542 1543 1544 1545 1546 1547 1547 1547 1548 1549 1550 1550 1551 1551 1552 1552 1552 1553 1553 1553 1553 1553 1553 1553
1508 1510 1511 1513 1515 1517 1519 1521 1523 1525 1527 1529 1531 1533 1535 1537 1538 1539 1540 1542 1543 1544 1545 1546 1547 1547 1548 1548 1549 1550 1551 1552 1552 1552 1553 1553 1553 1553 1554 1554 1553 1553 1553